Regional Weather Roundup
Issued by NWS

Home | Current Version | Previous Version | Graphics & Text | Print | Product List | Glossary On
Versions: 1 2 3 4 5 6 7 8 9 10 11 12 13 14 15 16 17 18 19 20 21 22 23 24 25 26 27 28 29 30 31 32 33 34 35 36 37 38 39 40 41 42 43 44 45 46 47 48 49 50
000
ASUS45 KABQ 041901
RWRNM
NEW MEXICO REGIONAL WEATHER ROUNDUP
NATIONAL WEATHER SERVICE ALBUQUERQUE NM
100 PM MDT WED MAY 04 2016

NOTE: "FAIR" MEANS FEW OR NO CLOUDS BELOW 12,000 FEET AGL WITH NO
       SIGNIFICANT WEATHER OR OBSTRUCTIONS TO VISION.

      THIS PRODUCT IS RELEASED AS TWO VERSIONS.  ONE VERSION NEAR
      THE TOP OF THE HOUR CONTAINING PRELIMINARY DATA FROM ALBUQUERQUE
      AND OTHER STATIONS.  A FINAL VERSION WITH ADDITIONAL DATA IS
      ISSUED ABOUT 10 MINUTES AFTER THE HOUR.

NMZ501-503-504-510>518-042000-
NORTHWEST PLATEAU/NORTHCENTRAL MOUNTAINS

CITY           SKY/WX    TMP DP  RH WIND       PRES   REMARKS
FARMINGTON     FAIR      72  27  18 VRB6      30.24F
SANTA FE       FAIR      70  20  15 VRB5      30.31F
TAOS           FAIR      64  25  22 NW7       30.35F

$$
NMZ402-403-502-505>509-042000-
WESTCENTRAL MOUNTAINS/SOUTHWEST MOUNTAINS

CITY           SKY/WX    TMP DP  RH WIND       PRES   REMARKS
GALLUP         FAIR      70  24  17 CALM      30.29F
SILVER CITY      N/A     73  27  17 SE17G26   30.28F

$$
NMZ407-409-411-412-042000-
SOUTHERN DESERTS

CITY           SKY/WX    TMP DP  RH WIND       PRES   REMARKS
LORDSBURG      FAIR      81  30  16 E20G31    30.18F
DEMING         FAIR      79  30  16 E14G23    30.20F
ALAMOGORDO     FAIR      77  27  15 SW8       30.23F
T OR C         FAIR      74  25  16 VRB3      30.24F

$$
NMZ519>523-042000-
CENTRAL VALLEYS/CENTRAL HIGHLANDS

CITY           SKY/WX    TMP DP  RH WIND       PRES   REMARKS
ALBUQUERQUE    FAIR      72  27  18 W7        30.28F
DOUBLE EAGLE   MOSUNNY   72  30  21 S6        30.31F
CLINES CORNERS FAIR      67  22  18 S7        30.34F
BELEN          FAIR      74  20  13 S9        30.28F
SOCORRO        NOT AVBL

$$
NMZ524>526-539-540-042000-
SOUTHCENTRAL MOUNTAINS

CITY           SKY/WX    TMP DP  RH WIND       PRES   REMARKS
RUIDOSO        NOT AVBL

$$
NMZ527>531-042000-
NORTHEAST HIGHLANDS/NORTHEAST PLAINS

CITY           SKY/WX    TMP DP  RH WIND       PRES   REMARKS
LAS VEGAS      FAIR      66  22  18 SE10G17   30.34F
RATON          FAIR      67  22  18 VRB3      30.28F
CLAYTON        FAIR      73  34  23 VRB5      30.23F

$$
NMZ532>537-042000-
EASTCENTRAL PLAINS

CITY           SKY/WX    TMP DP  RH WIND       PRES   REMARKS
TUCUMCARI      FAIR      76  26  15 VRB3      30.20F
CANNON AFB     FAIR      75  28  17 VRB6      30.22F
CLOVIS AIRPORT FAIR      73  34  23 N7G17     30.23F

$$
NMZ028-029-538-042000-
SOUTHEAST PLAINS

CITY           SKY/WX    TMP DP  RH WIND       PRES   REMARKS
ROSWELL        FAIR      76  27  16 SW5       30.22F
ARTESIA        FAIR      77  30  18 SE8G14    30.22F
CARLSBAD       FAIR      78  30  17 E9G16     30.20F
HOBBS          SUNNY     77  23  13 N8        30.22F


$$




USA.gov is the U.S. government's official web portal to all federal, state and local government web resources and services.